Iron Mountain, MI (49801)

6:36 PM CST on February 08, 2016 (GMT -0600)
Timberstone | | Change Station
CLOSE
Current Station
Personal Weather Station
Location: Iron Mountain, MI
Elevation: 1158 ft
Nearby Weather Stations

Elev 1158 ft 45.84 °N, 88.08 °W | Updated 11 minutes ago

Light Snow
Light Snow
16.2 °F
Feels Like 16 °F
N
2.2
Wind Variable Wind from West

Today
High -- | Low -- °F
--% Chance of Precip.
Yesterday
High -- | Low -- °F
Precip. -- in
Pressure 29.72 in
Visibility 1.5 miles
Clouds Few 3800 ft
Overcast 5000 ft
Windchill 16 °F
Dew Point 13 °F
Humidity 87%
Rainfall 0.00 in
Snow Depth Not available.
7:05 AM 5:07 PM
New Moon, 0% visible
SPECI KIMT 090026Z AUTO 33010KT 1 1/2SM -SN FEW038 OVC050 M08/M12 A2972 RMK AO2 SNB02 P0000 T10831122 TSNO
Pressure 29.72 in
Visibility 1.5 miles
Clouds Few 3800 ft
Overcast 5000 ft
Windchill 16 °F
Dew Point 13 °F
Humidity 87%
Rainfall 0.00 in
Snow Depth Not available.
7:05 AM 5:07 PM
New Moon, 0% visible
SPECI KIMT 090026Z AUTO 33010KT 1 1/2SM -SN FEW038 OVC050 M08/M12 A2972 RMK AO2 SNB02 P0000 T10831122 TSNO

10-Day Weather Forecast

Almanac

Astronomy

Feb. 08, 2016 Rise Set
Actual Time
Civil Twilight
Nautical Twilight
Astronomical Twilight
Moon
Length of Visible Light
Length of Day
Tomorrow will be .
, % of the Moon is Illuminated

Today's Extremes

State Highs State Lows

Community

WunderPhotos

Upload Photos

1,891,527 photos uploaded!

WunderBlog® & News

Nearby

Air Quality

  Air Quality AQ Index Pollutant
Not available.

Snow Depth

Station Depth Elevation

Earthquake Activity

City Distance Mag. Time & Date
Minimum magnitude displayed is 2.5.

Coastal Water Temperatures

Place Temperature

Stations

Nearby Weather Stations

Station Location Temp. Windchill Dew Point Humidity Wind Precip. Elev Updated Type
                   

Watches & Warnings

There are currently no watches in effect.